| time (UTC) | temp F | wind direction | speed MPH | gust MPH | rain 1hr in | rain 24hr in | rain mn in | humidity % | barometer mb |
| 20260905132006 | 62 | 218 | 0.0 | 1.0 | 0.00 | 0.00 | 0.00 | 68 | 1019.4 |
| 20260905131609 | 61 | 218 | 0.0 | 2.0 | 0.00 | 0.00 | 0.00 | 68 | 1002.2 |
| 20260905131500 | 61 | 218 | 0.0 | 2.0 | 0.00 | 0.00 | 0.00 | 69 | 1019.4 |
| 20260905131006 | 61 | 218 | 0.0 | 3.0 | 0.00 | 0.00 | 0.00 | 69 | 1019.4 |
| 20260905130506 | 61 | 218 | 1.0 | 3.0 | 0.00 | 0.00 | 0.00 | 69 | 1019.2 |
| 20260905130007 | 60 | 218 | 2.0 | 3.0 | 0.00 | 0.00 | 0.00 | 70 | 1019.0 |
| 20260905130004 | 60 | 218 | 1.0 | 3.0 | 0.00 | 0.00 | 0.00 | 70 | 1001.7 |
| 20260905125505 | 60 | 218 | 2.0 | 4.0 | 0.00 | 0.00 | 0.00 | 71 | 1019.0 |
| 20260905125007 | 60 | 218 | 2.0 | 5.0 | 0.00 | 0.00 | 0.00 | 72 | 1018.9 |
| 20260905124505 | 59 | 237 | 2.0 | 5.0 | 0.00 | 0.00 | 0.00 | 73 | 1001.5 |
| 20260905124005 | 60 | 237 | 2.0 | 4.0 | 0.00 | 0.00 | 0.00 | 73 | 1018.8 |
| 20260905123011 | 60 | 237 | 2.0 | 7.0 | 0.00 | 0.00 | 0.00 | 73 | 1001.3 |
| 20260905123006 | 60 | 237 | 3.0 | 7.0 | 0.00 | 0.00 | 0.00 | 73 | 1018.7 |
| 20260905122505 | 60 | 196 | 2.0 | 8.0 | 0.00 | 0.00 | 0.00 | 74 | 1018.7 |
| 20260905122006 | 60 | 212 | 3.0 | 8.0 | 0.00 | 0.00 | 0.00 | 74 | 1018.6 |
| 20260905121505 | 60 | 206 | 4.0 | 7.0 | 0.00 | 0.00 | 0.00 | 75 | 1018.5 |
| 20260905121503 | 60 | 206 | 4.0 | 7.0 | 0.00 | 0.00 | 0.00 | 75 | 1001.1 |
| 20260905121006 | 59 | 215 | 2.0 | 6.0 | 0.00 | 0.00 | 0.00 | 75 | 1018.5 |
| 20260905120505 | 59 | 168 | 3.0 | 6.0 | 0.00 | 0.00 | 0.00 | 76 | 1018.4 |
| 20260905120007 | 59 | 199 | 3.0 | 7.0 | 0.00 | 0.00 | 0.00 | 77 | 1018.4 |
| 20260905120004 | 59 | 199 | 2.0 | 7.0 | 0.00 | 0.00 | 0.00 | 77 | 1000.9 |
| 20260905115505 | 59 | 200 | 4.0 | 7.0 | 0.00 | 0.00 | 0.00 | 78 | 1018.4 |
| 20260905115006 | 59 | 213 | 4.0 | 6.0 | 0.00 | 0.00 | 0.00 | 78 | 1018.4 |
| 20260905114505 | 59 | 221 | 3.0 | 5.0 | 0.00 | 0.00 | 0.00 | 78 | 1018.4 |
| 20260905114006 | 59 | 213 | 3.0 | 5.0 | 0.00 | 0.00 | 0.00 | 77 | 1018.5 |
| 20260905113505 | 60 | 252 | 2.0 | 5.0 | 0.00 | 0.00 | 0.00 | 76 | 1018.6 |
| 20260905113007 | 60 | 225 | 2.0 | 5.0 | 0.00 | 0.00 | 0.00 | 77 | 1018.6 |
| 20260905113003 | 60 | 225 | 2.0 | 5.0 | 0.00 | 0.00 | 0.00 | 77 | 1001.1 |
| 20260905112006 | 59 | 196 | 3.0 | 6.0 | 0.00 | 0.00 | 0.00 | 78 | 1018.6 |
| 20260905111505 | 59 | 217 | 3.0 | 6.0 | 0.00 | 0.00 | 0.00 | 79 | 1018.6 |
| 20260905111503 | 59 | 217 | 3.0 | 6.0 | 0.00 | 0.00 | 0.00 | 79 | 1001.2 |
| 20260905111006 | 59 | 212 | 3.0 | 5.0 | 0.00 | 0.00 | 0.00 | 79 | 1018.6 |
| 20260905110100 | 59 | 205 | 2.0 | 5.0 | 0.00 | 0.00 | 0.00 | 79 | 1001.3 |
| 20260905110001 | 59 | 205 | 3.0 | 5.0 | 0.00 | 0.00 | 0.00 | 79 | 1018.6 |
| 20260905105505 | 59 | 205 | 2.0 | 6.0 | 0.00 | 0.00 | 0.00 | 78 | 1018.6 |
| 20260905104503 | 60 | 230 | 1.0 | 6.0 | 0.00 | 0.00 | 0.00 | 78 | 1001.2 |
| 20260905104006 | 60 | 230 | 4.0 | 6.0 | 0.00 | 0.00 | 0.00 | 77 | 1018.5 |
| 20260905103006 | 60 | 203 | 3.0 | 6.0 | 0.00 | 0.00 | 0.00 | 78 | 1018.6 |
| 20260905103004 | 60 | 203 | 2.0 | 6.0 | 0.00 | 0.00 | 0.00 | 78 | 1001.2 |
| 20260905102505 | 60 | 189 | 3.0 | 6.0 | 0.00 | 0.00 | 0.00 | 78 | 1018.6 |
| 20260905102005 | 60 | 169 | 2.0 | 6.0 | 0.00 | 0.00 | 0.00 | 78 | 1018.7 |
| 20260905101506 | 60 | 198 | 3.0 | 7.0 | 0.00 | 0.00 | 0.00 | 79 | 1018.6 |
| 20260905101504 | 60 | 198 | 2.0 | 7.0 | 0.00 | 0.00 | 0.00 | 79 | 1001.3 |
| 20260905101006 | 60 | 195 | 3.0 | 8.0 | 0.00 | 0.00 | 0.00 | 79 | 1018.8 |
| 20260905100505 | 60 | 190 | 4.0 | 8.0 | 0.00 | 0.00 | 0.00 | 79 | 1018.7 |
| 20260905100007 | 60 | 188 | 5.0 | 8.0 | 0.00 | 0.00 | 0.00 | 78 | 1018.7 |
| 20260905100005 | 60 | 188 | 5.0 | 8.0 | 0.00 | 0.00 | 0.00 | 78 | 1001.4 |
| 20260905095505 | 60 | 212 | 2.0 | 8.0 | 0.00 | 0.00 | 0.00 | 78 | 1018.8 |
| 20260905095006 | 59 | 191 | 4.0 | 6.0 | 0.00 | 0.00 | 0.00 | 77 | 1018.8 |
| 20260905094504 | 59 | 181 | 4.0 | 7.0 | 0.00 | 0.00 | 0.00 | 77 | 1018.8 |
| 20260905094006 | 59 | 181 | 3.0 | 7.0 | 0.00 | 0.00 | 0.00 | 77 | 1018.8 |
| 20260905093505 | 58 | 169 | 4.0 | 5.0 | 0.00 | 0.00 | 0.00 | 77 | 1018.8 |
| 20260905093003 | 58 | 169 | 1.0 | 3.0 | 0.00 | 0.00 | 0.00 | 75 | 1001.5 |
| 20260905092007 | 59 | 169 | 1.0 | 4.0 | 0.00 | 0.00 | 0.00 | 73 | 1018.9 |
| 20260905091505 | 60 | 169 | 0.0 | 5.0 | 0.00 | 0.00 | 0.00 | 71 | 1019.0 |
| 20260905091503 | 60 | 169 | 0.0 | 5.0 | 0.00 | 0.00 | 0.00 | 71 | 1001.8 |
| 20260905091006 | 60 | 169 | 3.0 | 5.0 | 0.00 | 0.00 | 0.00 | 73 | 1018.9 |
| 20260905090506 | 60 | 169 | 2.0 | 4.0 | 0.00 | 0.00 | 0.00 | 72 | 1019.0 |
| 20260905090007 | 61 | 169 | 2.0 | 3.0 | 0.00 | 0.00 | 0.00 | 69 | 1019.1 |
| 20260905090004 | 61 | 169 | 1.0 | 3.0 | 0.00 | 0.00 | 0.00 | 69 | 1001.8 |
| 20260905085505 | 61 | 169 | 1.0 | 3.0 | 0.00 | 0.00 | 0.00 | 69 | 1019.1 |
| 20260905085006 | 62 | 169 | 2.0 | 4.0 | 0.00 | 0.00 | 0.00 | 68 | 1019.1 |
| 20260905084506 | 62 | 169 | 3.0 | 6.0 | 0.00 | 0.00 | 0.00 | 68 | 1019.0 |
| 20260905084503 | 62 | 169 | 2.0 | 6.0 | 0.00 | 0.00 | 0.00 | 68 | 1001.7 |
| 20260905083505 | 62 | 203 | 2.0 | 3.0 | 0.00 | 0.00 | 0.00 | 67 | 1019.1 |
| 20260905083006 | 63 | 203 | 1.0 | 4.0 | 0.00 | 0.00 | 0.00 | 66 | 1018.9 |
| 20260905082006 | 64 | 236 | 1.0 | 5.0 | 0.00 | 0.00 | 0.00 | 64 | 1019.0 |
| 20260905081505 | 64 | 190 | 2.0 | 5.0 | 0.00 | 0.00 | 0.00 | 62 | 1018.9 |
| 20260905081006 | 65 | 190 | 2.0 | 11.0 | 0.00 | 0.00 | 0.00 | 61 | 1018.8 |
| 20260905080505 | 66 | 175 | 6.0 | 18.0 | 0.00 | 0.00 | 0.00 | 60 | 1018.7 |
| 20260905080006 | 66 | 153 | 10.0 | 18.0 | 0.00 | 0.00 | 0.00 | 59 | 1018.6 |
| 20260905075505 | 66 | 156 | 11.0 | 19.0 | 0.00 | 0.00 | 0.00 | 59 | 1018.4 |
| 20260905075008 | 66 | 129 | 10.0 | 15.0 | 0.00 | 0.00 | 0.00 | 59 | 1018.5 |
| 20260905074628 | 67 | 124 | 10.0 | 15.0 | 0.00 | 0.00 | 0.00 | 58 | 1001.2 |
| 20260905074458 | 67 | 110 | 10.0 | 15.0 | 0.00 | 0.00 | 0.00 | 58 | 1018.4 |
| 20260905074006 | 66 | 183 | 6.0 | 11.0 | 0.00 | 0.00 | 0.00 | 59 | 1018.2 |
| 20260905073505 | 66 | 165 | 5.0 | 10.0 | 0.00 | 0.00 | 0.00 | 59 | 1018.2 |
| 20260905073006 | 67 | 187 | 3.0 | 10.0 | 0.00 | 0.00 | 0.00 | 57 | 1018.3 |
| 20260905073003 | 67 | 187 | 2.0 | 10.0 | 0.00 | 0.00 | 0.00 | 57 | 1000.9 |
| 20260905072505 | 68 | 213 | 4.0 | 10.0 | 0.00 | 0.00 | 0.00 | 56 | 1018.2 |
| 20260905072006 | 68 | 213 | 7.0 | 12.0 | 0.00 | 0.00 | 0.00 | 56 | 1018.2 |
| 20260905071504 | 68 | 209 | 6.0 | 14.0 | 0.00 | 0.00 | 0.00 | 55 | 1018.2 |
| 20260905071000 | 68 | 184 | 8.0 | 15.0 | 0.00 | 0.00 | 0.00 | 55 | 1018.1 |
| 20260905070505 | 68 | 173 | 8.0 | 15.0 | 0.00 | 0.00 | 0.00 | 55 | 1018.1 |
| 20260905070006 | 68 | 184 | 10.0 | 13.0 | 0.00 | 0.00 | 0.00 | 55 | 1018.2 |
| 20260905070003 | 68 | 184 | 9.0 | 13.0 | 0.00 | 0.00 | 0.00 | 55 | 1000.8 |
| 20260905065504 | 68 | 166 | 9.0 | 13.0 | 0.00 | 0.00 | 0.00 | 55 | 1018.2 |
| 20260905065006 | 68 | 185 | 9.0 | 17.0 | 0.00 | 0.00 | 0.00 | 55 | 1018.2 |
| 20260905064504 | 68 | 175 | 12.0 | 19.0 | 0.00 | 0.00 | 0.00 | 55 | 1018.2 |
| 20260905064005 | 68 | 157 | 12.0 | 20.0 | 0.00 | 0.00 | 0.00 | 55 | 1018.2 |
| 20260905063505 | 68 | 189 | 12.0 | 19.0 | 0.00 | 0.00 | 0.00 | 55 | 1018.2 |
| 20260905063007 | 68 | 164 | 12.0 | 20.0 | 0.00 | 0.00 | 0.00 | 56 | 1018.3 |
| 20260905063003 | 68 | 164 | 11.0 | 20.0 | 0.00 | 0.00 | 0.00 | 56 | 1000.9 |
| 20260905062505 | 68 | 148 | 10.0 | 16.0 | 0.00 | 0.00 | 0.00 | 56 | 1018.4 |
| 20260905062006 | 68 | 177 | 10.0 | 17.0 | 0.00 | 0.00 | 0.00 | 56 | 1018.4 |
| 20260905061505 | 68 | 161 | 10.0 | 18.0 | 0.00 | 0.00 | 0.00 | 56 | 1018.4 |
| 20260905061503 | 68 | 161 | 10.0 | 18.0 | 0.00 | 0.00 | 0.00 | 56 | 1001.1 |
| 20260905061005 | 68 | 153 | 9.0 | 13.0 | 0.00 | 0.00 | 0.00 | 56 | 1018.4 |
| 20260905060505 | 68 | 146 | 8.0 | 16.0 | 0.00 | 0.00 | 0.00 | 56 | 1018.4 |
| 20260905060009 | 68 | 150 | 8.0 | 16.0 | 0.00 | 0.00 | 0.00 | 55 | 1018.5 |
| 20260905060004 | 68 | 150 | 7.0 | 16.0 | 0.00 | 0.00 | 0.00 | 55 | 1001.1 |
| 20260905055504 | 69 | 165 | 10.0 | 17.0 | 0.00 | 0.00 | 0.00 | 54 | 1018.4 |
| 20260905055004 | 69 | 152 | 10.0 | 19.0 | 0.00 | 0.00 | 0.00 | 53 | 1018.4 |
| 20260905054510 | 69 | 156 | 11.0 | 21.0 | 0.00 | 0.00 | 0.00 | 53 | 1001.2 |
| 20260905054505 | 69 | 155 | 12.0 | 21.0 | 0.00 | 0.00 | 0.00 | 53 | 1018.6 |
| 20260905054005 | 69 | 158 | 11.0 | 16.0 | 0.00 | 0.00 | 0.00 | 53 | 1018.4 |
| 20260905053503 | 69 | 185 | 10.0 | 17.0 | 0.00 | 0.00 | 0.00 | 53 | 1018.4 |
| 20260905053007 | 69 | 163 | 11.0 | 18.0 | 0.00 | 0.00 | 0.00 | 53 | 1018.4 |
| 20260905053002 | 69 | 163 | 10.0 | 18.0 | 0.00 | 0.00 | 0.00 | 53 | 1000.9 |
| 20260905052503 | 69 | 165 | 10.0 | 16.0 | 0.00 | 0.00 | 0.00 | 53 | 1018.4 |
| 20260905052004 | 69 | 148 | 9.0 | 16.0 | 0.00 | 0.00 | 0.00 | 53 | 1018.4 |
| 20260905051502 | 69 | 188 | 10.0 | 15.0 | 0.00 | 0.00 | 0.00 | 53 | 1000.9 |
| 20260905051005 | 69 | 187 | 10.0 | 16.0 | 0.00 | 0.00 | 0.00 | 52 | 1018.4 |
| 20260905050503 | 70 | 169 | 10.0 | 18.0 | 0.00 | 0.00 | 0.00 | 51 | 1018.4 |
| 20260905050006 | 70 | 186 | 10.0 | 18.0 | 0.00 | 0.00 | 0.00 | 51 | 1018.4 |
| 20260905050002 | 70 | 186 | 9.0 | 18.0 | 0.00 | 0.00 | 0.00 | 51 | 1000.8 |
| 20260905045503 | 70 | 152 | 11.0 | 14.0 | 0.00 | 0.00 | 0.00 | 51 | 1018.4 |
| 20260905045005 | 70 | 157 | 10.0 | 13.0 | 0.00 | 0.00 | 0.00 | 50 | 1018.4 |
| 20260905044504 | 70 | 151 | 10.0 | 13.0 | 0.00 | 0.00 | 0.00 | 50 | 1018.4 |
| 20260905044006 | 70 | 150 | 10.0 | 12.0 | 0.00 | 0.00 | 0.00 | 50 | 1018.4 |
| 20260905043503 | 70 | 150 | 10.0 | 15.0 | 0.00 | 0.00 | 0.00 | 50 | 1018.5 |
| 20260905043002 | 70 | 144 | 9.0 | 15.0 | 0.00 | 0.00 | 0.00 | 50 | 1000.9 |
| 20260905042503 | 70 | 149 | 9.0 | 14.0 | 0.00 | 0.00 | 0.00 | 50 | 1018.6 |
| 20260905042004 | 70 | 146 | 9.0 | 14.0 | 0.00 | 0.00 | 0.00 | 50 | 1018.5 |
| 20260905041504 | 70 | 161 | 8.0 | 14.0 | 0.00 | 0.00 | 0.00 | 50 | 1018.5 |
| 20260905041004 | 70 | 171 | 9.0 | 12.0 | 0.00 | 0.00 | 0.00 | 49 | 1018.4 |
| 20260905040503 | 70 | 140 | 9.0 | 12.0 | 0.00 | 0.00 | 0.00 | 49 | 1018.5 |
| 20260905040007 | 70 | 147 | 9.0 | 14.0 | 0.00 | 0.00 | 0.00 | 49 | 1018.5 |
| 20260905040002 | 70 | 147 | 8.0 | 14.0 | 0.00 | 0.00 | 0.00 | 49 | 1000.9 |
| 20260905035504 | 71 | 162 | 10.0 | 12.0 | 0.00 | 0.00 | 0.00 | 48 | 1018.5 |
| 20260905035004 | 71 | 175 | 10.0 | 16.0 | 0.00 | 0.00 | 0.00 | 48 | 1018.6 |
| 20260905034503 | 72 | 172 | 10.0 | 16.0 | 0.00 | 0.00 | 0.00 | 47 | 1018.5 |
| 20260905033504 | 72 | 154 | 10.0 | 19.0 | 0.00 | 0.00 | 0.00 | 47 | 1018.5 |
| 20260905033004 | 72 | 156 | 10.0 | 15.0 | 0.00 | 0.00 | 0.00 | 47 | 1018.5 |
| 20260905033002 | 72 | 156 | 9.0 | 15.0 | 0.00 | 0.00 | 0.00 | 47 | 1000.9 |
| 20260905032506 | 72 | 162 | 10.0 | 16.0 | 0.00 | 0.00 | 0.00 | 47 | 1018.4 |
| 20260905032004 | 72 | 153 | 8.0 | 12.0 | 0.00 | 0.00 | 0.00 | 47 | 1018.4 |
| 20260905031508 | 72 | 151 | 7.0 | 11.0 | 0.00 | 0.00 | 0.00 | 47 | 1000.8 |
| 20260905031506 | 72 | 151 | 8.0 | 11.0 | 0.00 | 0.00 | 0.00 | 47 | 1018.4 |
| 20260905031006 | 72 | 160 | 4.0 | 9.0 | 0.00 | 0.00 | 0.00 | 48 | 1018.4 |
| 20260905030505 | 72 | 148 | 4.0 | 14.0 | 0.00 | 0.00 | 0.00 | 47 | 1018.4 |
| 20260905030008 | 73 | 154 | 8.0 | 19.0 | 0.00 | 0.00 | 0.00 | 45 | 1018.4 |
| 20260905030004 | 73 | 154 | 7.0 | 19.0 | 0.00 | 0.00 | 0.00 | 45 | 1000.8 |
| 20260905025006 | 74 | 167 | 12.0 | 17.0 | 0.00 | 0.00 | 0.00 | 41 | 1018.3 |
| 20260905024506 | 74 | 136 | 4.0 | 14.0 | 0.00 | 0.00 | 0.00 | 39 | 1018.4 |
| 20260905024504 | 74 | 136 | 3.0 | 14.0 | 0.00 | 0.00 | 0.00 | 39 | 1000.9 |
| 20260905024006 | 75 | 155 | 9.0 | 16.0 | 0.00 | 0.00 | 0.00 | 37 | 1018.4 |
| 20260905023505 | 75 | 148 | 8.0 | 11.0 | 0.00 | 0.00 | 0.00 | 38 | 1018.2 |
| 20260905023006 | 75 | 148 | 8.0 | 14.0 | 0.00 | 0.00 | 0.00 | 38 | 1018.2 |
| 20260905023004 | 75 | 148 | 7.0 | 14.0 | 0.00 | 0.00 | 0.00 | 38 | 1000.7 |
| 20260905022506 | 76 | 151 | 7.0 | 17.0 | 0.00 | 0.00 | 0.00 | 37 | 1018.2 |
| 20260905021506 | 74 | 157 | 6.0 | 10.0 | 0.00 | 0.00 | 0.00 | 39 | 1018.4 |
| 20260905021504 | 74 | 157 | 6.0 | 10.0 | 0.00 | 0.00 | 0.00 | 39 | 1000.8 |
| 20260905021006 | 73 | 177 | 3.0 | 6.0 | 0.00 | 0.00 | 0.00 | 38 | 1018.2 |
| 20260905020505 | 73 | 28 | 0.0 | 1.0 | 0.00 | 0.00 | 0.00 | 40 | 1018.1 |
| 20260905020010 | 73 | 28 | 0.0 | 1.0 | 0.00 | 0.00 | 0.00 | 45 | 1000.5 |
| 20260905020006 | 73 | 28 | 0.0 | 1.0 | 0.00 | 0.00 | 0.00 | 45 | 1018.0 |
| 20260905015505 | 74 | 28 | 0.0 | 3.0 | 0.00 | 0.00 | 0.00 | 44 | 1017.9 |
| 20260905015007 | 75 | 28 | 1.0 | 3.0 | 0.00 | 0.00 | 0.00 | 39 | 1017.8 |
| 20260905014505 | 75 | 28 | 2.0 | 4.0 | 0.00 | 0.00 | 0.00 | 39 | 1017.8 |
| 20260905013959 | 76 | 28 | 2.0 | 4.0 | 0.00 | 0.00 | 0.00 | 36 | 1017.8 |
| 20260905013007 | 76 | 163 | 4.0 | 7.0 | 0.00 | 0.00 | 0.00 | 34 | 1017.6 |
| 20260905013004 | 76 | 163 | 3.0 | 7.0 | 0.00 | 0.00 | 0.00 | 34 | 1000.1 |
| 20260905012506 | 76 | 150 | 4.0 | 8.0 | 0.00 | 0.00 | 0.00 | 34 | 1017.4 |
| 20260905012008 | 76 | 136 | 5.0 | 8.0 | 0.00 | 0.00 | 0.00 | 35 | 1017.2 |
| 20260905011511 | 75 | 133 | 5.0 | 8.0 | 0.00 | 0.00 | 0.00 | 35 | 999.6 |
| 20260905011007 | 76 | 130 | 6.0 | 8.0 | 0.00 | 0.00 | 0.00 | 35 | 1017.2 |
| 20260905010505 | 76 | 131 | 4.0 | 9.0 | 0.00 | 0.00 | 0.00 | 36 | 1017.2 |
| 20260905010008 | 76 | 139 | 6.0 | 11.0 | 0.00 | 0.00 | 0.00 | 35 | 1017.0 |
| 20260905010004 | 76 | 139 | 6.0 | 11.0 | 0.00 | 0.00 | 0.00 | 35 | 999.6 |
| 20260905005505 | 77 | 126 | 7.0 | 12.0 | 0.00 | 0.00 | 0.00 | 34 | 1017.0 |
| 20260905005008 | 78 | 124 | 9.0 | 13.0 | 0.00 | 0.00 | 0.00 | 32 | 1016.9 |
| 20260905004503 | 78 | 133 | 7.0 | 13.0 | 0.00 | 0.00 | 0.00 | 32 | 999.4 |
| 20260905004006 | 78 | 116 | 8.0 | 12.0 | 0.00 | 0.00 | 0.00 | 32 | 1016.9 |
| 20260905003506 | 79 | 125 | 7.0 | 12.0 | 0.00 | 0.00 | 0.00 | 31 | 1016.9 |
| 20260905003006 | 79 | 126 | 7.0 | 12.0 | 0.00 | 0.00 | 0.00 | 31 | 1017.0 |
| 20260905002004 | 80 | 101 | 8.0 | 13.0 | 0.00 | 0.00 | 0.00 | 30 | 1016.8 |
| 20260905001506 | 81 | 124 | 10.0 | 15.0 | 0.00 | 0.00 | 0.00 | 29 | 1016.8 |
| 20260905001504 | 81 | 124 | 9.0 | 15.0 | 0.00 | 0.00 | 0.00 | 29 | 999.4 |
| 20260905001007 | 81 | 98 | 10.0 | 19.0 | 0.00 | 0.00 | 0.00 | 29 | 1016.8 |
| 20260905000008 | 83 | 112 | 13.0 | 20.0 | 0.00 | 0.00 | 0.00 | 27 | 1016.7 |
| 20260905000005 | 83 | 112 | 12.0 | 20.0 | 0.00 | 0.00 | 0.00 | 27 | 999.2 |
| 20260904235005 | 84 | 91 | 11.0 | 14.0 | 0.00 | 0.00 | 0.00 | 27 | 1016.6 |
| 20260904234511 | 84 | 136 | 8.0 | 17.0 | 0.00 | 0.00 | 0.00 | 27 | 999.2 |
| 20260904234506 | 84 | 136 | 9.0 | 17.0 | 0.00 | 0.00 | 0.00 | 27 | 1016.7 |
| 20260904234006 | 84 | 98 | 13.0 | 17.0 | 0.00 | 0.00 | 0.00 | 26 | 1016.7 |
| 20260904233008 | 82 | 134 | 12.0 | 18.0 | 0.00 | 0.00 | 0.00 | 27 | 1016.7 |
| 20260904233004 | 82 | 134 | 12.0 | 18.0 | 0.00 | 0.00 | 0.00 | 27 | 999.3 |
| 20260904232006 | 83 | 132 | 12.0 | 17.0 | 0.00 | 0.00 | 0.00 | 26 | 1016.7 |
| 20260904231505 | 85 | 136 | 12.0 | 17.0 | 0.00 | 0.00 | 0.00 | 24 | 1016.5 |
| 20260904231503 | 85 | 136 | 11.0 | 17.0 | 0.00 | 0.00 | 0.00 | 24 | 999.1 |
| 20260904231006 | 85 | 138 | 10.0 | 14.0 | 0.00 | 0.00 | 0.00 | 25 | 1016.5 |
| 20260904230459 | 85 | 128 | 9.0 | 16.0 | 0.00 | 0.00 | 0.00 | 25 | 1016.6 |
| 20260904230107 | 85 | 119 | 10.0 | 16.0 | 0.00 | 0.00 | 0.00 | 25 | 999.1 |
| 20260904230000 | 85 | 112 | 11.0 | 16.0 | 0.00 | 0.00 | 0.00 | 24 | 1016.6 |
| 20260904225505 | 85 | 117 | 11.0 | 16.0 | 0.00 | 0.00 | 0.00 | 24 | 1016.5 |
| 20260904224506 | 86 | 112 | 10.0 | 16.0 | 0.00 | 0.00 | 0.00 | 25 | 1016.6 |
| 20260904224006 | 86 | 192 | 7.0 | 15.0 | 0.00 | 0.00 | 0.00 | 24 | 1016.6 |
| 20260904223507 | 86 | 117 | 9.0 | 17.0 | 0.00 | 0.00 | 0.00 | 25 | 1016.6 |
| 20260904223007 | 86 | 121 | 12.0 | 17.0 | 0.00 | 0.00 | 0.00 | 25 | 1016.5 |
| 20260904223004 | 86 | 121 | 11.0 | 17.0 | 0.00 | 0.00 | 0.00 | 25 | 999.1 |
| 20260904222506 | 86 | 95 | 12.0 | 17.0 | 0.00 | 0.00 | 0.00 | 26 | 1016.5 |
| 20260904222006 | 85 | 111 | 10.0 | 19.0 | 0.00 | 0.00 | 0.00 | 24 | 1016.7 |
| 20260904221506 | 85 | 111 | 13.0 | 19.0 | 0.00 | 0.00 | 0.00 | 25 | 1016.8 |
| 20260904221006 | 85 | 91 | 11.0 | 16.0 | 0.00 | 0.00 | 0.00 | 24 | 1016.7 |
| 20260904220505 | 85 | 123 | 13.0 | 16.0 | 0.00 | 0.00 | 0.00 | 24 | 1016.7 |
| 20260904220009 | 85 | 83 | 11.0 | 16.0 | 0.00 | 0.00 | 0.00 | 25 | 1016.7 |
| 20260904220004 | 85 | 83 | 10.0 | 16.0 | 0.00 | 0.00 | 0.00 | 25 | 999.3 |
| 20260904215506 | 85 | 128 | 10.0 | 16.0 | 0.00 | 0.00 | 0.00 | 25 | 1016.9 |
| 20260904215006 | 86 | 118 | 9.0 | 15.0 | 0.00 | 0.00 | 0.00 | 24 | 1016.9 |
| 20260904214506 | 86 | 150 | 8.0 | 17.0 | 0.00 | 0.00 | 0.00 | 24 | 1016.9 |
| 20260904214000 | 86 | 151 | 10.0 | 17.0 | 0.00 | 0.00 | 0.00 | 26 | 1017.0 |
| 20260904213506 | 85 | 144 | 7.0 | 14.0 | 0.00 | 0.00 | 0.00 | 26 | 1016.9 |
| 20260904213006 | 85 | 106 | 7.0 | 13.0 | 0.00 | 0.00 | 0.00 | 25 | 1017.0 |
| 20260904213004 | 85 | 106 | 7.0 | 13.0 | 0.00 | 0.00 | 0.00 | 25 | 999.7 |
| 20260904212506 | 85 | 165 | 9.0 | 13.0 | 0.00 | 0.00 | 0.00 | 24 | 1017.0 |
| 20260904211506 | 86 | 128 | 8.0 | 12.0 | 0.00 | 0.00 | 0.00 | 24 | 1017.1 |
| 20260904211503 | 86 | 128 | 7.0 | 12.0 | 0.00 | 0.00 | 0.00 | 24 | 999.8 |
| 20260904211007 | 85 | 132 | 5.0 | 11.0 | 0.00 | 0.00 | 0.00 | 25 | 1017.2 |
| 20260904210007 | 85 | 130 | 8.0 | 13.0 | 0.00 | 0.00 | 0.00 | 23 | 1017.3 |
| 20260904210004 | 85 | 130 | 7.0 | 13.0 | 0.00 | 0.00 | 0.00 | 23 | 999.9 |
| 20260904205506 | 86 | 80 | 9.0 | 15.0 | 0.00 | 0.00 | 0.00 | 23 | 1017.3 |
| 20260904204503 | 86 | 116 | 11.0 | 15.0 | 0.00 | 0.00 | 0.00 | 22 | 1000.1 |
| 20260904203505 | 85 | 109 | 6.0 | 16.0 | 0.00 | 0.00 | 0.00 | 23 | 1017.6 |
| 20260904203009 | 85 | 119 | 12.0 | 18.0 | 0.00 | 0.00 | 0.00 | 22 | 1000.3 |
| 20260904203006 | 85 | 130 | 12.0 | 18.0 | 0.00 | 0.00 | 0.00 | 22 | 1017.6 |
| 20260904202506 | 85 | 159 | 13.0 | 18.0 | 0.00 | 0.00 | 0.00 | 23 | 1017.5 |
| 20260904201507 | 84 | 146 | 10.0 | 13.0 | 0.00 | 0.00 | 0.00 | 25 | 1017.6 |
| 20260904201504 | 84 | 146 | 10.0 | 13.0 | 0.00 | 0.00 | 0.00 | 25 | 1000.3 |
| 20260904201006 | 85 | 102 | 5.0 | 11.0 | 0.00 | 0.00 | 0.00 | 23 | 1017.7 |
| 20260904200008 | 85 | 166 | 5.0 | 9.0 | 0.00 | 0.00 | 0.00 | 22 | 1017.8 |
| 20260904200006 | 85 | 166 | 4.0 | 9.0 | 0.00 | 0.00 | 0.00 | 22 | 1000.5 |
| 20260904195006 | 84 | 5 | 3.0 | 7.0 | 0.00 | 0.00 | 0.00 | 23 | 1017.9 |
| 20260904194505 | 84 | 237 | 4.0 | 8.0 | 0.00 | 0.00 | 0.00 | 23 | 1017.9 |
| 20260904194503 | 84 | 237 | 4.0 | 8.0 | 0.00 | 0.00 | 0.00 | 23 | 1000.6 |
| 20260904194006 | 84 | 283 | 4.0 | 11.0 | 0.00 | 0.00 | 0.00 | 24 | 1017.9 |
| 20260904193506 | 85 | 186 | 6.0 | 14.0 | 0.00 | 0.00 | 0.00 | 22 | 1018.0 |
| 20260904193008 | 86 | 284 | 8.0 | 14.0 | 0.00 | 0.00 | 0.00 | 22 | 1000.6 |
| 20260904193006 | 86 | 284 | 8.0 | 14.0 | 0.00 | 0.00 | 0.00 | 22 | 1017.9 |
| 20260904192506 | 86 | 213 | 5.0 | 11.0 | 0.00 | 0.00 | 0.00 | 22 | 1018.0 |
| 20260904192011 | 85 | 245 | 4.0 | 10.0 | 0.00 | 0.00 | 0.00 | 23 | 1018.0 |
| 20260904191505 | 84 | 236 | 4.0 | 8.0 | 0.00 | 0.00 | 0.00 | 24 | 1018.0 |
| 20260904190010 | 84 | 150 | 6.0 | 18.0 | 0.00 | 0.00 | 0.00 | 23 | 1001.1 |
| 20260904190007 | 84 | 150 | 6.0 | 18.0 | 0.00 | 0.00 | 0.00 | 23 | 1018.3 |
| 20260904185506 | 84 | 190 | 3.0 | 12.0 | 0.00 | 0.00 | 0.00 | 24 | 1018.4 |
| 20260904185006 | 84 | 276 | 5.0 | 10.0 | 0.00 | 0.00 | 0.00 | 23 | 1018.4 |
| 20260904184505 | 83 | 281 | 3.0 | 12.0 | 0.00 | 0.00 | 0.00 | 25 | 1018.4 |
| 20260904184503 | 83 | 281 | 3.0 | 12.0 | 0.00 | 0.00 | 0.00 | 25 | 1001.2 |
| 20260904184006 | 83 | 156 | 8.0 | 12.0 | 0.00 | 0.00 | 0.00 | 23 | 1018.4 |
| 20260904183506 | 83 | 194 | 7.0 | 11.0 | 0.00 | 0.00 | 0.00 | 23 | 1018.4 |
| 20260904183004 | 83 | 255 | 5.0 | 10.0 | 0.00 | 0.00 | 0.00 | 23 | 1001.3 |
| 20260904182006 | 83 | 190 | 6.0 | 13.0 | 0.00 | 0.00 | 0.00 | 22 | 1018.6 |
| 20260904181505 | 83 | 257 | 5.0 | 11.0 | 0.00 | 0.00 | 0.00 | 22 | 1018.7 |
| 20260904181503 | 83 | 257 | 4.0 | 11.0 | 0.00 | 0.00 | 0.00 | 22 | 1001.6 |
| 20260904181007 | 83 | 238 | 4.0 | 17.0 | 0.00 | 0.00 | 0.00 | 23 | 1018.8 |
| 20260904180006 | 82 | 245 | 3.0 | 13.0 | 0.00 | 0.00 | 0.00 | 24 | 1001.8 |
| 20260904175505 | 82 | 216 | 6.0 | 16.0 | 0.00 | 0.00 | 0.00 | 23 | 1018.9 |
| 20260904175007 | 83 | 264 | 6.0 | 16.0 | 0.00 | 0.00 | 0.00 | 23 | 1018.9 |
| 20260904174506 | 82 | 261 | 4.0 | 9.0 | 0.00 | 0.00 | 0.00 | 23 | 1019.0 |
| 20260904174504 | 82 | 261 | 4.0 | 9.0 | 0.00 | 0.00 | 0.00 | 23 | 1002.0 |
| 20260904173506 | 82 | 244 | 5.0 | 10.0 | 0.00 | 0.00 | 0.00 | 23 | 1019.0 |
| 20260904173003 | 81 | 292 | 2.0 | 11.0 | 0.00 | 0.00 | 0.00 | 22 | 1002.1 |
| 20260904172505 | 81 | 255 | 5.0 | 13.0 | 0.00 | 0.00 | 0.00 | 22 | 1019.0 |
| 20260904171505 | 81 | 302 | 4.0 | 10.0 | 0.00 | 0.00 | 0.00 | 23 | 1019.0 |
| 20260904171503 | 81 | 302 | 4.0 | 10.0 | 0.00 | 0.00 | 0.00 | 23 | 1002.1 |
| 20260904171007 | 81 | 241 | 4.0 | 13.0 | 0.00 | 0.00 | 0.00 | 25 | 1019.0 |
| 20260904170505 | 81 | 202 | 4.0 | 13.0 | 0.00 | 0.00 | 0.00 | 23 | 1019.0 |
| 20260904170007 | 81 | 281 | 6.0 | 8.0 | 0.00 | 0.00 | 0.00 | 24 | 1019.0 |
| 20260904170004 | 81 | 281 | 5.0 | 8.0 | 0.00 | 0.00 | 0.00 | 24 | 1002.2 |
| 20260904165505 | 81 | 306 | 3.0 | 8.0 | 0.00 | 0.00 | 0.00 | 24 | 1018.9 |
| 20260904164506 | 80 | 246 | 5.0 | 14.0 | 0.00 | 0.00 | 0.00 | 25 | 1019.0 |
| 20260904164006 | 81 | 244 | 6.0 | 14.0 | 0.00 | 0.00 | 0.00 | 25 | 1019.0 |
| 20260904163504 | 80 | 223 | 4.0 | 7.0 | 0.00 | 0.00 | 0.00 | 24 | 1019.0 |
| 20260904163007 | 80 | 296 | 4.0 | 11.0 | 0.00 | 0.00 | 0.00 | 24 | 1019.0 |
| 20260904163003 | 80 | 296 | 3.0 | 11.0 | 0.00 | 0.00 | 0.00 | 24 | 1002.2 |
| 20260904162511 | 80 | 223 | 6.0 | 12.0 | 0.00 | 0.00 | 0.00 | 24 | 1018.9 |
| 20260904161504 | 80 | 248 | 3.0 | 11.0 | 0.00 | 0.00 | 0.00 | 24 | 1002.0 |
| 20260904161006 | 79 | 251 | 6.0 | 11.0 | 0.00 | 0.00 | 0.00 | 24 | 1018.8 |
| 20260904160505 | 79 | 277 | 4.0 | 9.0 | 0.00 | 0.00 | 0.00 | 24 | 1018.8 |
| 20260904160007 | 79 | 240 | 2.0 | 9.0 | 0.00 | 0.00 | 0.00 | 24 | 1002.0 |
| 20260904155506 | 79 | 249 | 3.0 | 9.0 | 0.00 | 0.00 | 0.00 | 25 | 1018.8 |
| 20260904155006 | 78 | 306 | 3.0 | 8.0 | 0.00 | 0.00 | 0.00 | 25 | 1018.8 |
| 20260904154505 | 78 | 224 | 3.0 | 9.0 | 0.00 | 0.00 | 0.00 | 24 | 1018.8 |
| 20260904154503 | 78 | 224 | 3.0 | 9.0 | 0.00 | 0.00 | 0.00 | 24 | 1002.0 |
| 20260904154006 | 78 | 298 | 3.0 | 9.0 | 0.00 | 0.00 | 0.00 | 25 | 1018.8 |
| 20260904153506 | 77 | 261 | 3.0 | 9.0 | 0.00 | 0.00 | 0.00 | 25 | 1018.8 |
| 20260904153007 | 77 | 269 | 2.0 | 9.0 | 0.00 | 0.00 | 0.00 | 26 | 1018.9 |
| 20260904153004 | 77 | 269 | 2.0 | 9.0 | 0.00 | 0.00 | 0.00 | 26 | 1002.1 |
| 20260904152007 | 76 | 278 | 1.0 | 7.0 | 0.00 | 0.00 | 0.00 | 31 | 1018.9 |
| 20260904151507 | 74 | 255 | 3.0 | 7.0 | 0.00 | 0.00 | 0.00 | 30 | 1018.9 |
| 20260904151503 | 74 | 255 | 2.0 | 7.0 | 0.00 | 0.00 | 0.00 | 30 | 1002.1 |
| 20260904151006 | 73 | 234 | 3.0 | 5.0 | 0.00 | 0.00 | 0.00 | 31 | 1018.9 |
| 20260904150506 | 72 | 244 | 2.0 | 5.0 | 0.00 | 0.00 | 0.00 | 33 | 1018.8 |
| 20260904150011 | 72 | 254 | 2.0 | 8.0 | 0.00 | 0.00 | 0.00 | 32 | 1002.0 |
| 20260904150006 | 72 | 254 | 2.0 | 8.0 | 0.00 | 0.00 | 0.00 | 32 | 1018.8 |
| 20260904145507 | 72 | 271 | 4.0 | 8.0 | 0.00 | 0.00 | 0.00 | 31 | 1018.9 |
| 20260904145006 | 72 | 244 | 3.0 | 6.0 | 0.00 | 0.00 | 0.00 | 32 | 1019.0 |
| 20260904144506 | 71 | 246 | 2.0 | 6.0 | 0.00 | 0.00 | 0.00 | 33 | 1018.8 |
| 20260904144504 | 71 | 246 | 2.0 | 6.0 | 0.00 | 0.00 | 0.00 | 33 | 1002.1 |
| 20260904144006 | 71 | 213 | 2.0 | 5.0 | 0.00 | 0.00 | 0.00 | 33 | 1018.9 |
| 20260904143505 | 70 | 236 | 3.0 | 5.0 | 0.00 | 0.00 | 0.00 | 33 | 1018.8 |
| 20260904143006 | 70 | 261 | 3.0 | 4.0 | 0.00 | 0.00 | 0.00 | 34 | 1018.8 |
| 20260904143004 | 70 | 261 | 2.0 | 4.0 | 0.00 | 0.00 | 0.00 | 34 | 1002.1 |
| 20260904142505 | 70 | 55 | 2.0 | 3.0 | 0.00 | 0.00 | 0.00 | 33 | 1018.9 |
| 20260904142007 | 70 | 55 | 2.0 | 3.0 | 0.00 | 0.00 | 0.00 | 33 | 1018.9 |
| 20260904141505 | 70 | 205 | 0.0 | 1.0 | 0.00 | 0.00 | 0.00 | 34 | 1018.8 |
| 20260904140506 | 67 | 163 | 1.0 | 2.0 | 0.00 | 0.00 | 0.00 | 36 | 1018.6 |
| 20260904140008 | 67 | 163 | 0.0 | 2.0 | 0.00 | 0.00 | 0.00 | 37 | 1018.5 |
| 20260904140005 | 67 | 163 | 0.0 | 2.0 | 0.00 | 0.00 | 0.00 | 37 | 1001.8 |
| 20260904135505 | 66 | 163 | 1.0 | 2.0 | 0.00 | 0.00 | 0.00 | 38 | 1018.5 |
| 20260904135007 | 64 | 163 | 0.0 | 3.0 | 0.00 | 0.00 | 0.00 | 42 | 1018.5 |
| 20260904134507 | 63 | 163 | 0.0 | 3.0 | 0.00 | 0.00 | 0.00 | 43 | 1018.4 |
| 20260904134505 | 63 | 163 | 0.0 | 3.0 | 0.00 | 0.00 | 0.00 | 43 | 1001.7 |
| 20260904133504 | 63 | 163 | 2.0 | 3.0 | 0.00 | 0.00 | 0.00 | 44 | 1018.2 |
| 20260904133008 | 62 | 163 | 2.0 | 5.0 | 0.00 | 0.00 | 0.00 | 42 | 1018.2 |
| 20260904133006 | 62 | 163 | 1.0 | 5.0 | 0.00 | 0.00 | 0.00 | 42 | 1001.5 |
| 20260904132505 | 62 | 163 | 4.0 | 5.0 | 0.00 | 0.00 | 0.00 | 42 | 1018.0 |